| time (UTC) | temp F | wind direction | speed knots | gust knots | rain 1hr in | rain 24hr in | rain mn in | humidity % | barometer mb |
| 20260504070337 | 36 | 0.0 | 0.0 | 0.00 | 0.00 | 0.00 | 89 | 1011.1 | |
| 20260504050317 | 40 | 0.0 | 0.0 | 0.00 | 0.00 | 0.00 | 85 | 1011.3 | |
| 20260504045316 | 40 | 0.0 | 0.0 | 0.00 | 0.00 | 0.00 | 84 | 1011.4 | |
| 20260504044357 | 41 | 0.0 | 0.0 | 0.00 | 0.00 | 0.00 | 83 | 1011.3 | |
| 20260504043316 | 42 | 0.0 | 0.0 | 0.00 | 0.00 | 0.00 | 82 | 1011.3 | |
| 20260504042316 | 42 | 0.0 | 0.0 | 0.00 | 0.00 | 0.00 | 81 | 1011.3 | |
| 20260504041316 | 43 | 0.0 | 0.0 | 0.00 | 0.00 | 0.00 | 81 | 1011.3 | |
| 20260504040316 | 44 | 0.0 | 0.0 | 0.00 | 0.00 | 0.00 | 80 | 1011.3 | |
| 20260504035337 | 45 | 0.0 | 0.0 | 0.00 | 0.00 | 0.00 | 79 | 1011.3 | |
| 20260504034316 | 46 | 0.0 | 0.0 | 0.00 | 0.00 | 0.00 | 78 | 1011.3 | |
| 20260504033316 | 46 | 0.0 | 0.0 | 0.00 | 0.00 | 0.00 | 78 | 1011.4 | |
| 20260504032437 | 46 | 0.0 | 0.0 | 0.00 | 0.00 | 0.00 | 78 | 1011.4 | |
| 20260504031316 | 47 | 0.0 | 0.0 | 0.00 | 0.00 | 0.00 | 77 | 1011.5 | |
| 20260504030316 | 47 | 0.0 | 0.0 | 0.00 | 0.00 | 0.00 | 76 | 1011.5 | |
| 20260504025336 | 48 | 0.0 | 0.0 | 0.00 | 0.00 | 0.00 | 75 | 1011.4 | |
| 20260504024317 | 48 | 0.0 | 0.0 | 0.00 | 0.00 | 0.00 | 75 | 1011.5 | |
| 20260504023336 | 48 | 0.0 | 0.0 | 0.00 | 0.00 | 0.00 | 76 | 1011.7 | |
| 20260504022336 | 48 | 0.0 | 0.0 | 0.00 | 0.00 | 0.00 | 75 | 1011.7 | |
| 20260504021316 | 48 | 225 | 0.9 | 0.9 | 0.00 | 0.00 | 0.00 | 74 | 1011.7 |
| 20260504020336 | 48 | 0.0 | 0.0 | 0.00 | 0.00 | 0.00 | 73 | 1011.7 | |
| 20260504015316 | 48 | 0.0 | 0.9 | 0.00 | 0.00 | 0.00 | 73 | 1011.7 | |
| 20260504014436 | 48 | 0.0 | 0.0 | 0.00 | 0.00 | 0.00 | 73 | 1011.6 | |
| 20260504013317 | 48 | 0.0 | 0.0 | 0.00 | 0.00 | 0.00 | 73 | 1011.5 | |
| 20260504012316 | 48 | 0.0 | 0.0 | 0.00 | 0.00 | 0.00 | 72 | 1011.4 | |
| 20260504011356 | 49 | 0.0 | 0.0 | 0.00 | 0.00 | 0.00 | 71 | 1011.4 | |
| 20260504010316 | 49 | 0.0 | 0.0 | 0.00 | 0.00 | 0.00 | 69 | 1011.3 | |
| 20260504005316 | 50 | 0.0 | 0.0 | 0.00 | 0.00 | 0.00 | 70 | 1011.3 | |
| 20260504004317 | 50 | 0.0 | 0.0 | 0.00 | 0.00 | 0.00 | 69 | 1011.3 | |
| 20260504003336 | 51 | 0.0 | 0.0 | 0.00 | 0.00 | 0.00 | 67 | 1011.1 | |
| 20260504002316 | 52 | 0.0 | 0.0 | 0.00 | 0.00 | 0.00 | 61 | 1011.0 | |
| 20260504001317 | 52 | 0.0 | 0.0 | 0.00 | 0.00 | 0.00 | 63 | 1011.0 | |
| 20260504000316 | 52 | 0.0 | 0.0 | 0.00 | 0.00 | 0.00 | 64 | 1010.7 | |
| 20260503235336 | 54 | 0.0 | 0.0 | 0.00 | 0.00 | 0.00 | 56 | 1010.6 | |
| 20260503234337 | 55 | 0.0 | 0.0 | 0.00 | 0.00 | 0.00 | 52 | 1010.6 | |
| 20260503233357 | 55 | 247 | 0.9 | 1.7 | 0.00 | 0.00 | 0.00 | 48 | 1010.4 |
| 20260503232416 | 56 | 247 | 2.6 | 3.5 | 0.00 | 0.00 | 0.00 | 46 | 1010.4 |
| 20260503231337 | 56 | 247 | 2.6 | 3.5 | 0.00 | 0.00 | 0.00 | 46 | 1010.3 |
| 20260503230336 | 56 | 247 | 2.6 | 3.5 | 0.00 | 0.00 | 0.00 | 47 | 1010.4 |
| 20260503225316 | 56 | 247 | 5.2 | 8.7 | 0.00 | 0.00 | 0.00 | 46 | 1010.4 |
| 20260503224316 | 56 | 270 | 2.6 | 3.5 | 0.00 | 0.00 | 0.00 | 47 | 1010.5 |
| 20260503223356 | 56 | 247 | 2.6 | 7.0 | 0.00 | 0.00 | 0.00 | 46 | 1010.5 |
| 20260503222336 | 57 | 292 | 3.5 | 6.1 | 0.00 | 0.00 | 0.00 | 45 | 1010.6 |
| 20260503221317 | 57 | 225 | 2.6 | 3.5 | 0.00 | 0.00 | 0.00 | 45 | 1010.6 |
| 20260503220356 | 57 | 247 | 4.3 | 7.8 | 0.00 | 0.00 | 0.00 | 44 | 1010.6 |
| 20260503215336 | 58 | 292 | 4.3 | 8.7 | 0.00 | 0.00 | 0.00 | 44 | 1010.7 |
| 20260503214357 | 57 | 225 | 1.7 | 2.6 | 0.00 | 0.00 | 0.00 | 45 | 1010.8 |
| 20260503213336 | 56 | 315 | 2.6 | 6.1 | 0.00 | 0.00 | 0.00 | 47 | 1010.6 |
| 20260503212336 | 56 | 315 | 3.5 | 4.3 | 0.00 | 0.00 | 0.00 | 46 | 1010.6 |
| 20260503211336 | 55 | 337 | 2.6 | 4.3 | 0.00 | 0.00 | 0.00 | 48 | 1010.7 |
| 20260503210316 | 55 | 247 | 1.7 | 2.6 | 0.00 | 0.00 | 0.00 | 49 | 1010.8 |
| 20260503205316 | 55 | 292 | 0.9 | 1.7 | 0.00 | 0.00 | 0.00 | 47 | 1010.9 |
| 20260503204315 | 55 | 292 | 1.7 | 2.6 | 0.00 | 0.00 | 0.00 | 50 | 1011.0 |
| 20260503203336 | 54 | 292 | 2.6 | 5.2 | 0.00 | 0.00 | 0.00 | 48 | 1011.1 |
| 20260503202335 | 54 | 315 | 3.5 | 5.2 | 0.00 | 0.00 | 0.00 | 48 | 1011.1 |
| 20260503201315 | 54 | 135 | 1.7 | 3.5 | 0.00 | 0.00 | 0.00 | 49 | 1011.2 |
| 20260503200357 | 55 | 225 | 7.8 | 12.2 | 0.00 | 0.00 | 0.00 | 47 | 1011.5 |
| 20260503195315 | 55 | 315 | 4.3 | 7.8 | 0.00 | 0.00 | 0.00 | 45 | 1011.2 |
| 20260503194315 | 56 | 292 | 2.6 | 4.3 | 0.00 | 0.00 | 0.00 | 44 | 1011.1 |
| 20260503193336 | 55 | 292 | 1.7 | 4.3 | 0.00 | 0.00 | 0.00 | 46 | 1011.2 |
| 20260503192416 | 55 | 0 | 2.6 | 5.2 | 0.00 | 0.00 | 0.00 | 41 | 1011.3 |
| 20260503191335 | 55 | 315 | 2.6 | 4.3 | 0.00 | 0.00 | 0.00 | 42 | 1011.3 |
| 20260503190416 | 56 | 292 | 4.3 | 7.8 | 0.00 | 0.00 | 0.00 | 41 | 1011.4 |
| 20260503185315 | 55 | 270 | 3.5 | 6.1 | 0.00 | 0.00 | 0.00 | 46 | 1011.5 |
| 20260503184335 | 55 | 270 | 3.5 | 7.8 | 0.00 | 0.00 | 0.00 | 45 | 1011.7 |
| 20260503183336 | 54 | 225 | 0.9 | 1.7 | 0.00 | 0.00 | 0.00 | 41 | 1011.6 |
| 20260503182335 | 56 | 22 | 1.7 | 5.2 | 0.00 | 0.00 | 0.00 | 42 | 1011.8 |
| 20260503181355 | 55 | 292 | 4.3 | 7.0 | 0.00 | 0.00 | 0.00 | 43 | 1012.0 |
| 20260503180335 | 55 | 270 | 1.7 | 3.5 | 0.00 | 0.00 | 0.00 | 43 | 1012.0 |
| 20260503175336 | 56 | 337 | 4.3 | 8.7 | 0.00 | 0.00 | 0.00 | 43 | 1012.2 |
| 20260503174315 | 55 | 315 | 5.2 | 8.7 | 0.00 | 0.00 | 0.00 | 40 | 1012.3 |
| 20260503173315 | 55 | 337 | 3.5 | 7.8 | 0.00 | 0.00 | 0.00 | 42 | 1012.4 |
| 20260503172335 | 54 | 292 | 5.2 | 7.8 | 0.00 | 0.00 | 0.00 | 45 | 1012.4 |
| 20260503171356 | 52 | 292 | 1.7 | 1.7 | 0.00 | 0.00 | 0.00 | 45 | 1012.7 |
| 20260503170315 | 52 | 337 | 2.6 | 5.2 | 0.00 | 0.00 | 0.00 | 43 | 1012.8 |
| 20260503150335 | 48 | 270 | 4.3 | 7.8 | 0.00 | 0.00 | 0.00 | 49 | 1014.0 |
| 20260503131316 | 44 | 315 | 3.5 | 5.2 | 0.00 | 0.00 | 0.00 | 57 | 1014.2 |
| 20260503130335 | 45 | 247 | 2.6 | 3.5 | 0.00 | 0.00 | 0.00 | 59 | 1014.3 |
| 20260503110317 | 37 | 0.0 | 0.9 | 0.00 | 0.00 | 0.00 | 81 | 1013.9 | |
| 20260503090316 | 37 | 0.0 | 0.0 | 0.00 | 0.00 | 0.00 | 88 | 1013.1 | |
| 20260503081417 | 37 | 0.0 | 0.0 | 0.00 | 0.00 | 0.00 | 89 | 1013.1 | |
| 20260503080316 | 36 | 0.0 | 0.0 | 0.00 | 0.00 | 0.00 | 89 | 1013.2 | |
| 20260503072316 | 36 | 0.0 | 0.0 | 0.00 | 0.00 | 0.00 | 88 | 1013.2 | |
| 20260503071316 | 36 | 0.0 | 0.0 | 0.00 | 0.00 | 0.00 | 88 | 1013.2 |